Weather in Puir

Russia / Khabarovsk Krai     53°09′57″N   141°26′02″E
temp.,
°C
wind,
m/s
gust,
m/s
humid.,
%
clouds,
%
prec.,
mm/h
press.,
hPa
HPBL,
m
23 january, sat
sat2301:00−25wnw51080100 0.0 1020255
04:00−26wnw488096 0.0 1020126
07:00−26wnw587531 0.0 1021103
10:00−27w448216 0.0 102244
13:00−23w24850 0.0 1021152
16:00−24w23820 0.0 102220
19:00−26wsw33800 0.0 102219
22:00−26sw33800 0.0 102319
24 january, sun
sun2401:00−26wsw12750 0.0 102319
04:00−26ssw23760 0.0 102319
07:00−26nw117356 0.0 102320
10:00−26nw237933 0.0 102419
13:00−24n12830 0.0 102530
16:00−25nw11870 0.0 102620
19:00−24wnw57820 0.0 102878
22:00−25wnw45840 0.0 102925
25 january, mon
mon2501:00−26wnw45840 0.0 103030
04:00−28nw44840 0.0 103130
07:00−29nw44830 0.0 103229
10:00−29wnw34830 0.0 103349
13:00−26nw46820 0.0 1034288
16:00−28n34850 0.0 103536
19:00−29nnw23860 0.0 103619
22:00−30wnw12860 0.0 103719
26 january, tue
tue2601:00−30w11810 0.0 103619
04:00−30se11860 0.0 103519
07:00−29se229262 0.0 103419
10:00−26ese348781 0.0 1032203
13:00−25ese3476100 0.0 1029302
16:00−23e4581100 0.0 1027391
19:00−23e5697100 0.1 1025394
22:00−22e4698100 0.9 1022443
27 january, wed
wed2701:00−21e4697100 0.8 1020455
04:00−19ene3597100 1.4 1018368
07:00−18ne2496100 0.6 1015258
10:00−17n4596100 1.5 1013249
13:00−15nw6795100 1.6 1009373
16:00−16nw101495100 3.0 1006356
19:00−16nw111595100 2.0 1005354
22:00−15nw81096100 4.1 1004205